| time (UTC) | temp F | wind direction | speed MPH | gust MPH | rain 1hr in | rain 24hr in | rain mn in | humidity % | barometer mb |
| 20260901065704 | 76 | 165 | 0.0 | 0.0 | 0.00 | 0.00 | 0.00 | 74 | 1014.5 |
| 20260901065203 | 76 | 165 | 0.0 | 0.0 | 0.00 | 0.00 | 0.00 | 74 | 1014.6 |
| 20260901064704 | 76 | 165 | 0.0 | 0.0 | 0.00 | 0.00 | 0.00 | 74 | 1014.5 |
| 20260901064204 | 75 | 165 | 0.0 | 0.0 | 0.00 | 0.00 | 0.00 | 74 | 1014.6 |
| 20260901063704 | 75 | 165 | 0.0 | 0.0 | 0.00 | 0.00 | 0.00 | 74 | 1014.6 |
| 20260901063204 | 75 | 165 | 0.0 | 0.0 | 0.00 | 0.00 | 0.00 | 74 | 1014.6 |
| 20260901062203 | 76 | 165 | 0.0 | 0.0 | 0.00 | 0.00 | 0.00 | 74 | 1014.6 |
| 20260901061704 | 76 | 165 | 0.0 | 0.0 | 0.00 | 0.00 | 0.00 | 73 | 1014.6 |
| 20260901060703 | 76 | 165 | 0.0 | 0.0 | 0.00 | 0.00 | 0.00 | 72 | 1014.6 |
| 20260901060204 | 77 | 165 | 0.0 | 0.0 | 0.00 | 0.00 | 0.00 | 71 | 1014.6 |
| 20260901055704 | 77 | 165 | 0.0 | 0.0 | 0.00 | 0.00 | 0.00 | 71 | 1014.5 |
| 20260901055203 | 77 | 165 | 0.0 | 0.0 | 0.00 | 0.00 | 0.00 | 70 | 1014.5 |
| 20260901054703 | 77 | 165 | 0.0 | 0.0 | 0.00 | 0.00 | 0.00 | 70 | 1014.6 |
| 20260901054203 | 78 | 165 | 0.0 | 0.0 | 0.00 | 0.00 | 0.00 | 70 | 1014.5 |
| 20260901053703 | 78 | 169 | 0.0 | 0.0 | 0.00 | 0.00 | 0.00 | 70 | 1014.5 |
| 20260901053203 | 78 | 169 | 0.0 | 0.0 | 0.00 | 0.00 | 0.00 | 69 | 1014.4 |
| 20260901052704 | 78 | 169 | 0.0 | 0.0 | 0.00 | 0.00 | 0.00 | 68 | 1014.4 |
| 20260901052204 | 78 | 169 | 0.0 | 0.0 | 0.00 | 0.00 | 0.00 | 68 | 1014.4 |
| 20260901051704 | 78 | 169 | 0.0 | 0.0 | 0.00 | 0.00 | 0.00 | 67 | 1014.4 |
| 20260901051203 | 79 | 169 | 0.0 | 0.0 | 0.00 | 0.00 | 0.00 | 67 | 1014.3 |
| 20260901050704 | 79 | 169 | 0.0 | 0.0 | 0.00 | 0.00 | 0.00 | 67 | 1014.3 |
| 20260901050203 | 79 | 169 | 0.0 | 0.0 | 0.00 | 0.00 | 0.00 | 66 | 1014.3 |
| 20260901045204 | 79 | 169 | 0.0 | 0.0 | 0.00 | 0.00 | 0.00 | 66 | 1014.3 |
| 20260901044704 | 79 | 169 | 0.0 | 0.0 | 0.00 | 0.00 | 0.00 | 66 | 1014.3 |
| 20260901044203 | 80 | 169 | 0.0 | 0.0 | 0.00 | 0.00 | 0.00 | 65 | 1014.3 |
| 20260901043203 | 80 | 169 | 0.0 | 0.0 | 0.00 | 0.00 | 0.00 | 65 | 1014.2 |
| 20260901042704 | 80 | 169 | 0.0 | 0.0 | 0.00 | 0.00 | 0.00 | 65 | 1014.2 |
| 20260901042203 | 80 | 169 | 0.0 | 0.0 | 0.00 | 0.00 | 0.00 | 64 | 1014.2 |
| 20260901041704 | 80 | 169 | 0.0 | 0.0 | 0.00 | 0.00 | 0.00 | 64 | 1014.2 |
| 20260901041203 | 81 | 169 | 0.0 | 0.0 | 0.00 | 0.00 | 0.00 | 64 | 1014.1 |
| 20260901040704 | 81 | 169 | 0.0 | 0.0 | 0.00 | 0.00 | 0.00 | 63 | 1014.1 |
| 20260901040203 | 81 | 169 | 0.0 | 0.0 | 0.00 | 0.00 | 0.00 | 63 | 1014.1 |
| 20260901035704 | 82 | 169 | 0.0 | 0.0 | 0.00 | 0.00 | 0.00 | 63 | 1014.1 |
| 20260901035203 | 82 | 169 | 0.0 | 0.0 | 0.00 | 0.00 | 0.00 | 62 | 1014.1 |
| 20260901034704 | 82 | 170 | 0.0 | 0.0 | 0.00 | 0.00 | 0.00 | 61 | 1014.0 |
| 20260901033703 | 83 | 179 | 0.0 | 0.0 | 0.00 | 0.00 | 0.00 | 60 | 1014.2 |
| 20260901033204 | 83 | 173 | 0.0 | 0.0 | 0.00 | 0.00 | 0.00 | 60 | 1014.2 |
| 20260901031204 | 84 | 172 | 0.0 | 0.0 | 0.00 | 0.00 | 0.00 | 59 | 1014.1 |
| 20260901030703 | 84 | 198 | 0.0 | 0.0 | 0.00 | 0.00 | 0.00 | 59 | 1014.2 |
| 20260901030204 | 84 | 186 | 0.0 | 2.0 | 0.00 | 0.00 | 0.00 | 58 | 1014.0 |
| 20260901025703 | 84 | 195 | 0.0 | 1.0 | 0.00 | 0.00 | 0.00 | 58 | 1014.0 |
| 20260901025204 | 84 | 195 | 0.0 | 3.0 | 0.00 | 0.00 | 0.00 | 58 | 1014.0 |
| 20260901024703 | 84 | 195 | 0.0 | 1.0 | 0.00 | 0.00 | 0.00 | 58 | 1014.0 |
| 20260901024203 | 85 | 144 | 0.0 | 3.0 | 0.00 | 0.00 | 0.00 | 58 | 1013.9 |
| 20260901023703 | 85 | 191 | 0.0 | 2.0 | 0.00 | 0.00 | 0.00 | 57 | 1014.0 |
| 20260901023204 | 85 | 230 | 0.0 | 3.0 | 0.00 | 0.00 | 0.00 | 57 | 1013.9 |
| 20260901022704 | 85 | 138 | 0.0 | 1.0 | 0.00 | 0.00 | 0.00 | 57 | 1013.8 |
| 20260901022204 | 85 | 149 | 0.0 | 3.0 | 0.00 | 0.00 | 0.00 | 56 | 1013.6 |
| 20260901021204 | 86 | 147 | 0.0 | 1.0 | 0.00 | 0.00 | 0.00 | 56 | 1013.5 |
| 20260901015703 | 86 | 107 | 0.0 | 1.0 | 0.00 | 0.00 | 0.00 | 55 | 1013.2 |
| 20260901015204 | 86 | 183 | 0.0 | 2.0 | 0.00 | 0.00 | 0.00 | 55 | 1013.2 |
| 20260901014704 | 86 | 118 | 0.0 | 3.0 | 0.00 | 0.00 | 0.00 | 54 | 1013.2 |
| 20260901013704 | 85 | 147 | 0.0 | 1.0 | 0.00 | 0.00 | 0.00 | 55 | 1012.9 |
| 20260901013204 | 86 | 193 | 0.0 | 0.0 | 0.00 | 0.00 | 0.00 | 54 | 1012.9 |
| 20260901012704 | 86 | 180 | 0.0 | 0.0 | 0.00 | 0.00 | 0.00 | 54 | 1012.8 |
| 20260901011704 | 87 | 180 | 0.0 | 0.0 | 0.00 | 0.00 | 0.00 | 52 | 1012.6 |
| 20260901011203 | 87 | 180 | 0.0 | 0.0 | 0.00 | 0.00 | 0.00 | 52 | 1012.6 |
| 20260901010703 | 88 | 180 | 0.0 | 0.0 | 0.00 | 0.00 | 0.00 | 52 | 1012.6 |
| 20260901005703 | 89 | 84 | 0.0 | 0.0 | 0.00 | 0.00 | 0.00 | 50 | 1012.4 |
| 20260901004703 | 90 | 84 | 0.0 | 0.0 | 0.00 | 0.00 | 0.00 | 48 | 1012.4 |
| 20260901003204 | 92 | 110 | 0.0 | 0.0 | 0.00 | 0.00 | 0.00 | 46 | 1012.3 |
| 20260901002704 | 93 | 332 | 0.0 | 1.0 | 0.00 | 0.00 | 0.00 | 45 | 1012.3 |
| 20260901002204 | 93 | 309 | 0.0 | 0.0 | 0.00 | 0.00 | 0.00 | 44 | 1012.3 |
| 20260901001704 | 94 | 309 | 0.0 | 1.0 | 0.00 | 0.00 | 0.00 | 43 | 1012.2 |
| 20260901001204 | 95 | 210 | 0.0 | 0.0 | 0.00 | 0.00 | 0.00 | 42 | 1012.2 |
| 20260901000204 | 96 | 227 | 0.0 | 3.0 | 0.00 | 0.00 | 0.00 | 41 | 1012.2 |
| 20260831235703 | 96 | 281 | 0.0 | 3.0 | 0.00 | 0.00 | 0.00 | 41 | 1012.2 |
| 20260831235203 | 97 | 156 | 0.0 | 3.0 | 0.00 | 0.00 | 0.00 | 40 | 1012.2 |
| 20260831234704 | 97 | 151 | 0.0 | 3.0 | 0.00 | 0.00 | 0.00 | 40 | 1012.2 |
| 20260831234204 | 97 | 207 | 1.0 | 3.0 | 0.00 | 0.00 | 0.00 | 40 | 1012.0 |
| 20260831232703 | 98 | 157 | 1.0 | 7.0 | 0.00 | 0.00 | 0.00 | 39 | 1012.1 |
| 20260831232204 | 98 | 77 | 0.0 | 1.0 | 0.00 | 0.00 | 0.00 | 40 | 1012.1 |
| 20260831231204 | 98 | 188 | 1.0 | 5.0 | 0.00 | 0.00 | 0.00 | 40 | 1012.2 |
| 20260831230703 | 98 | 194 | 0.0 | 5.0 | 0.00 | 0.00 | 0.00 | 40 | 1012.2 |
| 20260831230204 | 98 | 145 | 1.0 | 5.0 | 0.00 | 0.00 | 0.00 | 40 | 1012.2 |
| 20260831225704 | 97 | 164 | 2.0 | 6.0 | 0.00 | 0.00 | 0.00 | 40 | 1012.2 |
| 20260831224704 | 97 | 162 | 1.0 | 5.0 | 0.00 | 0.00 | 0.00 | 42 | 1012.2 |
| 20260831224203 | 98 | 206 | 2.0 | 5.0 | 0.00 | 0.00 | 0.00 | 40 | 1012.3 |
| 20260831223704 | 98 | 61 | 1.0 | 6.0 | 0.00 | 0.00 | 0.00 | 39 | 1012.2 |
| 20260831223203 | 98 | 173 | 1.0 | 7.0 | 0.00 | 0.00 | 0.00 | 40 | 1012.3 |
| 20260831222703 | 98 | 87 | 1.0 | 9.0 | 0.00 | 0.00 | 0.00 | 40 | 1012.3 |
| 20260831222204 | 98 | 189 | 5.0 | 8.0 | 0.00 | 0.00 | 0.00 | 40 | 1012.2 |
| 20260831221704 | 98 | 186 | 2.0 | 6.0 | 0.00 | 0.00 | 0.00 | 40 | 1012.2 |
| 20260831221203 | 98 | 137 | 3.0 | 5.0 | 0.00 | 0.00 | 0.00 | 41 | 1012.3 |
| 20260831220704 | 98 | 208 | 2.0 | 9.0 | 0.00 | 0.00 | 0.00 | 41 | 1012.3 |
| 20260831220204 | 97 | 0 | 0.0 | 6.0 | 0.00 | 0.00 | 0.00 | 42 | 1012.4 |
| 20260831215204 | 98 | 132 | 0.0 | 2.0 | 0.00 | 0.00 | 0.00 | 40 | 1012.4 |
| 20260831214703 | 98 | 129 | 0.0 | 0.0 | 0.00 | 0.00 | 0.00 | 40 | 1012.4 |
| 20260831214204 | 98 | 129 | 0.0 | 2.0 | 0.00 | 0.00 | 0.00 | 40 | 1012.4 |
| 20260831213704 | 98 | 197 | 0.0 | 1.0 | 0.00 | 0.00 | 0.00 | 41 | 1012.5 |
| 20260831212703 | 97 | 213 | 1.0 | 3.0 | 0.00 | 0.00 | 0.00 | 40 | 1012.5 |
| 20260831212204 | 98 | 122 | 0.0 | 1.0 | 0.00 | 0.00 | 0.00 | 40 | 1012.5 |
| 20260831210704 | 99 | 134 | 0.0 | 3.0 | 0.00 | 0.00 | 0.00 | 38 | 1012.6 |
| 20260831210203 | 99 | 191 | 3.0 | 8.0 | 0.00 | 0.00 | 0.00 | 38 | 1012.6 |
| 20260831205703 | 98 | 110 | 0.0 | 2.0 | 0.00 | 0.00 | 0.00 | 39 | 1012.7 |
| 20260831205204 | 99 | 78 | 1.0 | 3.0 | 0.00 | 0.00 | 0.00 | 38 | 1012.7 |
| 20260831204203 | 98 | 119 | 0.0 | 1.0 | 0.00 | 0.00 | 0.00 | 38 | 1012.9 |
| 20260831203203 | 99 | 117 | 2.0 | 7.0 | 0.00 | 0.00 | 0.00 | 37 | 1013.1 |
| 20260831202204 | 100 | 122 | 1.0 | 9.0 | 0.00 | 0.00 | 0.00 | 36 | 1013.0 |
| 20260831201703 | 99 | 218 | 3.0 | 7.0 | 0.00 | 0.00 | 0.00 | 37 | 1013.1 |
| 20260831201204 | 98 | 185 | 2.0 | 5.0 | 0.00 | 0.00 | 0.00 | 39 | 1013.1 |
| 20260831200204 | 97 | 50 | 2.0 | 3.0 | 0.00 | 0.00 | 0.00 | 37 | 1013.2 |
| 20260831195704 | 98 | 64 | 1.0 | 2.0 | 0.00 | 0.00 | 0.00 | 37 | 1013.3 |
| 20260831195203 | 99 | 76 | 1.0 | 3.0 | 0.00 | 0.00 | 0.00 | 36 | 1013.3 |
| 20260831194704 | 99 | 104 | 0.0 | 2.0 | 0.00 | 0.00 | 0.00 | 37 | 1013.4 |
| 20260831194204 | 99 | 163 | 1.0 | 3.0 | 0.00 | 0.00 | 0.00 | 37 | 1013.5 |
| 20260831193704 | 99 | 152 | 1.0 | 3.0 | 0.00 | 0.00 | 0.00 | 36 | 1013.5 |
| 20260831193204 | 99 | 261 | 2.0 | 5.0 | 0.00 | 0.00 | 0.00 | 36 | 1013.5 |
| 20260831192704 | 99 | 60 | 3.0 | 6.0 | 0.00 | 0.00 | 0.00 | 36 | 1013.5 |
| 20260831192203 | 99 | 203 | 2.0 | 8.0 | 0.00 | 0.00 | 0.00 | 36 | 1013.6 |
| 20260831191704 | 99 | 243 | 5.0 | 9.0 | 0.00 | 0.00 | 0.00 | 37 | 1013.6 |
| 20260831191203 | 99 | 194 | 3.0 | 9.0 | 0.00 | 0.00 | 0.00 | 37 | 1013.8 |
| 20260831190704 | 98 | 191 | 5.0 | 10.0 | 0.00 | 0.00 | 0.00 | 37 | 1013.9 |
| 20260831190203 | 99 | 230 | 3.0 | 10.0 | 0.00 | 0.00 | 0.00 | 37 | 1013.9 |
| 20260831185204 | 99 | 276 | 3.0 | 10.0 | 0.00 | 0.00 | 0.00 | 38 | 1014.0 |
| 20260831184703 | 99 | 199 | 1.0 | 5.0 | 0.00 | 0.00 | 0.00 | 38 | 1014.1 |
| 20260831184203 | 99 | 251 | 1.0 | 6.0 | 0.00 | 0.00 | 0.00 | 39 | 1014.2 |
| 20260831183704 | 99 | 192 | 3.0 | 7.0 | 0.00 | 0.00 | 0.00 | 39 | 1014.3 |
| 20260831183203 | 100 | 212 | 3.0 | 7.0 | 0.00 | 0.00 | 0.00 | 37 | 1014.3 |
| 20260831182704 | 99 | 129 | 1.0 | 5.0 | 0.00 | 0.00 | 0.00 | 37 | 1014.3 |
| 20260831182204 | 99 | 150 | 3.0 | 5.0 | 0.00 | 0.00 | 0.00 | 37 | 1014.4 |
| 20260831181703 | 98 | 79 | 3.0 | 6.0 | 0.00 | 0.00 | 0.00 | 39 | 1014.6 |
| 20260831181204 | 97 | 146 | 2.0 | 6.0 | 0.00 | 0.00 | 0.00 | 41 | 1014.6 |
| 20260831180204 | 96 | 135 | 1.0 | 6.0 | 0.00 | 0.00 | 0.00 | 42 | 1014.7 |
| 20260831175704 | 96 | 141 | 1.0 | 6.0 | 0.00 | 0.00 | 0.00 | 43 | 1014.8 |
| 20260831175204 | 96 | 201 | 2.0 | 6.0 | 0.00 | 0.00 | 0.00 | 42 | 1014.8 |
| 20260831174703 | 97 | 241 | 3.0 | 5.0 | 0.00 | 0.00 | 0.00 | 43 | 1014.7 |
| 20260831174204 | 96 | 236 | 1.0 | 9.0 | 0.00 | 0.00 | 0.00 | 44 | 1014.8 |
| 20260831173703 | 95 | 224 | 2.0 | 5.0 | 0.00 | 0.00 | 0.00 | 45 | 1014.9 |
| 20260831173203 | 95 | 304 | 1.0 | 5.0 | 0.00 | 0.00 | 0.00 | 46 | 1014.9 |
| 20260831172704 | 95 | 261 | 2.0 | 6.0 | 0.00 | 0.00 | 0.00 | 46 | 1015.0 |
| 20260831172204 | 95 | 191 | 3.0 | 7.0 | 0.00 | 0.00 | 0.00 | 46 | 1015.1 |
| 20260831171703 | 96 | 301 | 3.0 | 6.0 | 0.00 | 0.00 | 0.00 | 46 | 1015.2 |
| 20260831171204 | 95 | 60 | 1.0 | 3.0 | 0.00 | 0.00 | 0.00 | 46 | 1015.2 |
| 20260831170704 | 94 | 114 | 2.0 | 7.0 | 0.00 | 0.00 | 0.00 | 48 | 1015.2 |
| 20260831165704 | 94 | 265 | 2.0 | 6.0 | 0.00 | 0.00 | 0.00 | 49 | 1015.4 |
| 20260831165203 | 94 | 187 | 3.0 | 6.0 | 0.00 | 0.00 | 0.00 | 50 | 1015.4 |
| 20260831164703 | 93 | 159 | 1.0 | 8.0 | 0.00 | 0.00 | 0.00 | 50 | 1015.5 |
| 20260831164203 | 93 | 225 | 5.0 | 10.0 | 0.00 | 0.00 | 0.00 | 49 | 1015.5 |
| 20260831162704 | 92 | 262 | 3.0 | 6.0 | 0.00 | 0.00 | 0.00 | 52 | 1015.6 |
| 20260831162203 | 92 | 211 | 2.0 | 5.0 | 0.00 | 0.00 | 0.00 | 53 | 1015.6 |
| 20260831161203 | 91 | 267 | 2.0 | 7.0 | 0.00 | 0.00 | 0.00 | 55 | 1015.6 |
| 20260831160703 | 91 | 187 | 5.0 | 10.0 | 0.00 | 0.00 | 0.00 | 55 | 1015.6 |
| 20260831160204 | 91 | 192 | 2.0 | 5.0 | 0.00 | 0.00 | 0.00 | 56 | 1015.7 |
| 20260831155703 | 90 | 140 | 1.0 | 5.0 | 0.00 | 0.00 | 0.00 | 58 | 1015.7 |
| 20260831155203 | 89 | 264 | 1.0 | 3.0 | 0.00 | 0.00 | 0.00 | 59 | 1015.8 |
| 20260831154704 | 89 | 220 | 0.0 | 5.0 | 0.00 | 0.00 | 0.00 | 60 | 1015.7 |
| 20260831154204 | 89 | 212 | 2.0 | 7.0 | 0.00 | 0.00 | 0.00 | 60 | 1015.7 |
| 20260831153704 | 88 | 234 | 1.0 | 3.0 | 0.00 | 0.00 | 0.00 | 61 | 1015.8 |
| 20260831153204 | 87 | 136 | 2.0 | 5.0 | 0.00 | 0.00 | 0.00 | 61 | 1015.8 |
| 20260831152704 | 87 | 216 | 2.0 | 3.0 | 0.00 | 0.00 | 0.00 | 63 | 1015.8 |
| 20260831152203 | 85 | 296 | 1.0 | 3.0 | 0.00 | 0.00 | 0.00 | 64 | 1015.8 |
| 20260831151204 | 85 | 127 | 1.0 | 3.0 | 0.00 | 0.00 | 0.00 | 65 | 1015.8 |
| 20260831150704 | 85 | 127 | 1.0 | 2.0 | 0.00 | 0.00 | 0.00 | 64 | 1015.9 |
| 20260831150204 | 84 | 123 | 2.0 | 3.0 | 0.00 | 0.00 | 0.00 | 65 | 1015.9 |
| 20260831145204 | 84 | 145 | 1.0 | 2.0 | 0.00 | 0.00 | 0.00 | 66 | 1015.9 |
| 20260831144203 | 83 | 83 | 0.0 | 2.0 | 0.00 | 0.00 | 0.00 | 67 | 1015.9 |
| 20260831143204 | 82 | 54 | 1.0 | 2.0 | 0.00 | 0.00 | 0.00 | 66 | 1015.9 |
| 20260831142703 | 83 | 74 | 1.0 | 2.0 | 0.00 | 0.00 | 0.00 | 66 | 1015.9 |
| 20260831141204 | 81 | 195 | 0.0 | 0.0 | 0.00 | 0.00 | 0.00 | 68 | 1016.0 |
| 20260831140203 | 80 | 68 | 0.0 | 2.0 | 0.00 | 0.00 | 0.00 | 69 | 1015.8 |
| 20260831135703 | 80 | 64 | 0.0 | 2.0 | 0.00 | 0.00 | 0.00 | 68 | 1015.8 |
| 20260831135204 | 80 | 79 | 0.0 | 1.0 | 0.00 | 0.00 | 0.00 | 70 | 1015.9 |
| 20260831134703 | 80 | 180 | 0.0 | 2.0 | 0.00 | 0.00 | 0.00 | 69 | 1015.8 |
| 20260831134203 | 79 | 67 | 0.0 | 2.0 | 0.00 | 0.00 | 0.00 | 70 | 1015.8 |
| 20260831133704 | 78 | 87 | 0.0 | 1.0 | 0.00 | 0.00 | 0.00 | 71 | 1015.7 |
| 20260831132703 | 77 | 107 | 0.0 | 0.0 | 0.00 | 0.00 | 0.00 | 73 | 1015.6 |
| 20260831132203 | 77 | 107 | 0.0 | 0.0 | 0.00 | 0.00 | 0.00 | 74 | 1015.6 |
| 20260831131704 | 76 | 85 | 0.0 | 0.0 | 0.00 | 0.00 | 0.00 | 75 | 1015.6 |
| 20260831131204 | 75 | 84 | 0.0 | 0.0 | 0.00 | 0.00 | 0.00 | 76 | 1015.6 |
| 20260831130704 | 74 | 92 | 0.0 | 0.0 | 0.00 | 0.00 | 0.00 | 78 | 1015.6 |
| 20260831125703 | 71 | 92 | 0.0 | 0.0 | 0.00 | 0.00 | 0.00 | 81 | 1015.3 |
| 20260831125204 | 71 | 92 | 0.0 | 0.0 | 0.00 | 0.00 | 0.00 | 81 | 1015.2 |
| 20260831124704 | 71 | 92 | 0.0 | 0.0 | 0.00 | 0.00 | 0.00 | 81 | 1015.2 |
| 20260831124203 | 70 | 92 | 0.0 | 0.0 | 0.00 | 0.00 | 0.00 | 82 | 1015.2 |
| 20260831123703 | 70 | 92 | 0.0 | 0.0 | 0.00 | 0.00 | 0.00 | 82 | 1015.2 |
| 20260831122704 | 70 | 92 | 0.0 | 0.0 | 0.00 | 0.00 | 0.00 | 82 | 1015.0 |
| 20260831122204 | 70 | 92 | 0.0 | 0.0 | 0.00 | 0.00 | 0.00 | 82 | 1014.9 |
| 20260831121204 | 69 | 92 | 0.0 | 0.0 | 0.00 | 0.00 | 0.00 | 82 | 1014.7 |
| 20260831120704 | 69 | 92 | 0.0 | 0.0 | 0.00 | 0.00 | 0.00 | 82 | 1014.7 |
| 20260831120203 | 69 | 92 | 0.0 | 0.0 | 0.00 | 0.00 | 0.00 | 83 | 1014.6 |
| 20260831115203 | 69 | 86 | 0.0 | 0.0 | 0.00 | 0.00 | 0.00 | 83 | 1014.6 |
| 20260831114704 | 69 | 86 | 0.0 | 0.0 | 0.00 | 0.00 | 0.00 | 83 | 1014.5 |
| 20260831113203 | 69 | 86 | 0.0 | 0.0 | 0.00 | 0.00 | 0.00 | 83 | 1014.3 |
| 20260831112704 | 69 | 86 | 0.0 | 0.0 | 0.00 | 0.00 | 0.00 | 82 | 1014.3 |
| 20260831111704 | 70 | 86 | 0.0 | 0.0 | 0.00 | 0.00 | 0.00 | 82 | 1014.2 |
| 20260831110704 | 70 | 86 | 0.0 | 0.0 | 0.00 | 0.00 | 0.00 | 80 | 1014.1 |
| 20260831110203 | 70 | 86 | 0.0 | 0.0 | 0.00 | 0.00 | 0.00 | 80 | 1014.1 |
| 20260831105703 | 70 | 86 | 0.0 | 0.0 | 0.00 | 0.00 | 0.00 | 80 | 1014.0 |
| 20260831105204 | 70 | 86 | 0.0 | 0.0 | 0.00 | 0.00 | 0.00 | 80 | 1014.0 |
| 20260831104704 | 70 | 91 | 0.0 | 0.0 | 0.00 | 0.00 | 0.00 | 80 | 1014.0 |
| 20260831104203 | 70 | 91 | 0.0 | 0.0 | 0.00 | 0.00 | 0.00 | 81 | 1014.0 |
| 20260831103704 | 70 | 91 | 0.0 | 0.0 | 0.00 | 0.00 | 0.00 | 81 | 1014.0 |
| 20260831103204 | 70 | 93 | 0.0 | 0.0 | 0.00 | 0.00 | 0.00 | 81 | 1014.0 |
| 20260831102203 | 71 | 93 | 0.0 | 0.0 | 0.00 | 0.00 | 0.00 | 80 | 1014.0 |
| 20260831101704 | 71 | 93 | 0.0 | 0.0 | 0.00 | 0.00 | 0.00 | 80 | 1014.0 |
| 20260831101203 | 71 | 93 | 0.0 | 0.0 | 0.00 | 0.00 | 0.00 | 79 | 1014.0 |
| 20260831100703 | 71 | 93 | 0.0 | 0.0 | 0.00 | 0.00 | 0.00 | 79 | 1014.0 |
| 20260831095204 | 71 | 93 | 0.0 | 0.0 | 0.00 | 0.00 | 0.00 | 78 | 1014.0 |
| 20260831094704 | 71 | 93 | 0.0 | 0.0 | 0.00 | 0.00 | 0.00 | 78 | 1013.8 |
| 20260831094204 | 71 | 93 | 0.0 | 0.0 | 0.00 | 0.00 | 0.00 | 78 | 1013.8 |
| 20260831093703 | 71 | 93 | 0.0 | 0.0 | 0.00 | 0.00 | 0.00 | 79 | 1013.9 |
| 20260831093204 | 71 | 93 | 0.0 | 0.0 | 0.00 | 0.00 | 0.00 | 79 | 1014.0 |
| 20260831092703 | 71 | 93 | 0.0 | 0.0 | 0.00 | 0.00 | 0.00 | 79 | 1013.9 |
| 20260831092204 | 71 | 93 | 0.0 | 0.0 | 0.00 | 0.00 | 0.00 | 79 | 1014.0 |
| 20260831091703 | 71 | 93 | 0.0 | 0.0 | 0.00 | 0.00 | 0.00 | 79 | 1013.9 |
| 20260831091203 | 71 | 93 | 0.0 | 0.0 | 0.00 | 0.00 | 0.00 | 79 | 1013.8 |
| 20260831090704 | 72 | 93 | 0.0 | 0.0 | 0.00 | 0.00 | 0.00 | 78 | 1013.8 |
| 20260831090203 | 72 | 93 | 0.0 | 0.0 | 0.00 | 0.00 | 0.00 | 78 | 1013.8 |
| 20260831085204 | 72 | 93 | 0.0 | 0.0 | 0.00 | 0.00 | 0.00 | 76 | 1013.8 |
| 20260831084704 | 72 | 93 | 0.0 | 0.0 | 0.00 | 0.00 | 0.00 | 76 | 1013.8 |
| 20260831084204 | 72 | 93 | 0.0 | 0.0 | 0.00 | 0.00 | 0.00 | 76 | 1013.8 |
| 20260831083703 | 72 | 93 | 0.0 | 0.0 | 0.00 | 0.00 | 0.00 | 76 | 1013.8 |
| 20260831083204 | 72 | 93 | 0.0 | 0.0 | 0.00 | 0.00 | 0.00 | 76 | 1013.8 |
| 20260831082704 | 72 | 93 | 0.0 | 0.0 | 0.00 | 0.00 | 0.00 | 76 | 1013.7 |
| 20260831082203 | 72 | 93 | 0.0 | 0.0 | 0.00 | 0.00 | 0.00 | 76 | 1013.6 |
| 20260831081703 | 73 | 93 | 0.0 | 0.0 | 0.00 | 0.00 | 0.00 | 76 | 1013.6 |
| 20260831081204 | 73 | 93 | 0.0 | 0.0 | 0.00 | 0.00 | 0.00 | 76 | 1013.5 |
| 20260831080703 | 73 | 160 | 0.0 | 0.0 | 0.00 | 0.00 | 0.00 | 76 | 1013.4 |
| 20260831080204 | 73 | 160 | 0.0 | 0.0 | 0.00 | 0.00 | 0.00 | 76 | 1013.4 |
| 20260831075204 | 73 | 160 | 0.0 | 0.0 | 0.00 | 0.00 | 0.00 | 76 | 1013.3 |
| 20260831074703 | 73 | 162 | 0.0 | 0.0 | 0.00 | 0.00 | 0.00 | 76 | 1013.3 |
| 20260831073704 | 73 | 162 | 0.0 | 0.0 | 0.00 | 0.00 | 0.00 | 75 | 1013.4 |
| 20260831073203 | 73 | 162 | 0.0 | 0.0 | 0.00 | 0.00 | 0.00 | 75 | 1013.4 |
| 20260831072703 | 73 | 162 | 0.0 | 0.0 | 0.00 | 0.00 | 0.00 | 75 | 1013.5 |
| 20260831071703 | 74 | 162 | 0.0 | 0.0 | 0.00 | 0.00 | 0.00 | 74 | 1013.5 |
| 20260831071203 | 74 | 162 | 0.0 | 0.0 | 0.00 | 0.00 | 0.00 | 74 | 1013.5 |
| 20260831070704 | 74 | 162 | 0.0 | 0.0 | 0.00 | 0.00 | 0.00 | 74 | 1013.5 |